Theta_e
291 291 291 292 293 293 293 293 292 292 292 292 291 290 290 290 289 288 288 288 287 286 286 285 285 286 286 287 288 286 283 283 282 282 281 280 279 279 279 278 277 276 276 276 277 278 278 278 278 279 279 280 279 279 279 279 279 279 278 278 278 278 277
291 291 291 292 292 293 293 293 292 291 291 292 291 290 289 289 289 288 288 287 287 286 285 285 285 285 285 287 287 285 283 283 282 281 280 280 279 279 279 279 277 276 276 276 277 277 277 277 277 277 278 278 278 278 279 279 279 279 278 278 278 278 278
291 291 291 292 292 292 293 293 292 292 291 291 291 290 289 288 288 288 287 287 286 286 285 285 284 284 285 286 287 286 283 282 282 281 280 280 279 279 279 278 277 276 276 275 276 276 276 276 276 276 277 277 277 278 278 278 278 278 278 278 278 277 278
290 290 291 291 291 292 292 292 292 292 291 291 291 290 289 288 287 287 287 287 287 286 286 285 285 284 285 286 287 286 283 282 282 281 281 280 279 279 279 278 277 276 276 275 275 275 276 276 276 276 276 276 276 277 277 277 278 278 278 277 277 277 277
290 290 290 291 291 291 291 292 292 291 291 290 290 290 289 288 287 287 287 286 286 286 286 286 285 285 285 286 287 286 283 282 282 281 280 280 279 279 279 278 277 277 276 275 275 275 275 275 275 275 275 275 276 276 276 276 277 277 277 277 276 276 277
289 290 290 290 290 290 290 291 291 291 291 290 289 289 289 288 287 286 286 286 286 285 285 285 285 285 285 285 286 286 284 282 282 281 280 280 279 279 279 278 277 277 276 275 275 275 275 275 275 274 275 275 275 275 275 275 275 276 276 275 275 275 275
289 289 289 289 290 290 290 290 290 291 290 289 289 288 288 288 287 285 285 285 285 285 285 285 285 285 285 285 286 285 283 282 281 280 280 279 279 279 278 278 277 276 276 275 275 275 275 274 274 274 275 275 275 274 274 274 274 274 274 274 273 273 274
289 289 289 289 289 289 289 289 290 290 289 288 288 288 287 287 286 285 284 284 284 284 284 284 284 284 284 285 286 285 283 281 281 280 279 279 279 278 278 277 277 276 275 275 275 275 274 274 274 274 275 275 274 274 274 274 274 273 273 273 272 273 273
288 288 289 289 289 289 289 289 289 289 289 288 287 287 287 286 286 285 284 284 284 284 284 284 284 284 284 285 285 284 282 281 280 279 279 279 279 278 278 277 276 275 275 275 275 274 274 274 274 275 275 274 274 274 273 273 273 273 272 272 272 272 273
288 288 288 288 288 288 288 288 289 289 288 287 286 286 286 286 285 284 284 284 284 283 283 283 283 284 284 284 284 283 281 280 279 278 278 279 278 278 277 276 276 275 275 275 274 274 274 275 275 275 274 274 274 273 273 273 272 272 271 271 271 272 273
287 288 288 288 288 288 288 288 288 288 287 286 286 286 286 286 285 284 284 284 283 283 283 283 283 283 284 284 283 282 281 280 279 278 279 279 278 277 277 276 276 276 275 274 274 274 275 275 275 275 274 274 274 273 273 272 271 271 271 271 271 271 272
287 288 288 288 288 288 288 288 288 287 286 285 285 286 286 286 285 284 284 283 283 283 283 283 283 283 283 283 283 282 281 280 279 279 280 279 278 277 276 276 276 275 275 274 275 275 276 275 275 274 274 274 273 272 272 271 271 271 271 271 271 271 271
286 287 288 288 288 288 288 288 287 286 285 285 284 285 286 286 285 284 284 283 283 283 283 283 283 283 283 283 282 281 280 279 279 279 280 278 277 276 276 276 276 276 275 275 276 276 275 275 275 274 274 273 272 272 271 271 272 271 271 271 271 271 271
286 287 288 288 288 288 288 287 286 285 285 284 284 284 284 285 285 284 284 283 283 283 283 283 283 282 282 282 282 281 280 279 279 280 279 277 276 276 276 276 276 276 276 276 276 276 276 275 274 273 273 272 272 272 272 272 272 271 271 271 271 271 271
286 287 288 288 288 288 288 287 286 285 284 284 284 284 284 284 284 283 283 283 283 283 282 282 282 282 282 282 282 281 280 279 280 280 279 277 276 276 276 276 276 276 276 275 275 275 275 274 273 272 272 272 272 272 272 272 272 271 271 271 271 271 272
287 288 288 288 288 288 288 287 286 285 285 284 284 283 283 283 283 283 283 282 282 282 282 282 282 282 282 282 282 281 280 280 280 279 278 276 276 276 276 276 276 275 274 274 273 273 273 273 272 272 272 272 272 272 272 272 272 272 271 271 271 272 273
287 288 288 288 288 288 288 287 287 286 285 284 284 283 283 283 283 283 283 282 282 282 281 281 281 281 281 281 281 280 279 280 279 278 277 276 276 276 276 276 276 275 274 274 273 273 273 273 272 272 272 272 272 272 272 271 272 272 271 271 271 273 274
288 288 288 288 288 288 287 287 287 286 285 284 284 283 283 283 283 283 283 282 282 282 281 281 281 280 280 280 280 279 279 279 279 277 277 277 276 276 276 276 275 275 274 274 274 273 273 273 272 272 272 272 272 273 272 272 272 272 272 272 272 273 273
288 288 288 288 288 287 287 287 287 286 285 284 283 283 283 283 283 283 283 282 282 282 281 281 280 280 280 280 279 279 279 278 278 278 277 277 276 276 276 276 275 275 275 274 274 273 273 273 273 273 273 273 273 273 273 273 273 273 272 273 273 272 272
288 288 288 287 287 287 287 287 286 286 285 284 283 283 283 283 283 283 282 282 282 282 281 281 280 280 279 279 279 279 278 277 277 278 278 277 277 277 276 275 275 275 274 274 273 273 273 273 273 274 274 274 274 274 274 274 273 273 273 273 273 273 271
288 287 287 287 287 287 287 286 286 286 285 284 283 283 283 283 282 282 282 282 282 282 281 281 280 280 279 279 279 278 278 277 277 277 277 277 277 276 275 274 274 274 274 273 273 274 274 274 274 274 274 274 274 274 274 274 274 274 274 274 273 273 272
287 287 286 286 286 286 286 286 286 285 285 284 283 283 283 283 282 282 282 282 282 282 281 281 280 280 279 279 278 278 277 277 277 277 277 277 276 275 275 274 274 273 273 274 274 274 274 274 274 274 274 275 275 275 275 275 274 274 274 274 274 273 273
286 286 286 286 286 286 285 285 285 285 284 284 283 283 283 283 282 282 282 281 281 281 281 281 280 280 279 279 278 278 277 277 277 277 276 276 275 275 275 274 273 273 273 274 274 274 274 274 274 275 275 275 275 275 275 275 275 275 275 274 274 274 274
286 286 286 285 285 285 285 285 285 284 284 283 283 282 283 283 282 282 282 281 281 281 281 281 280 280 279 279 278 278 277 277 277 277 276 276 275 275 274 273 273 274 274 274 274 274 274 274 275 275 275 275 275 275 275 275 275 275 275 274 275 274 274
285 285 285 285 285 284 284 284 284 284 283 283 283 282 282 283 282 282 282 281 281 281 280 280 280 280 279 278 278 278 278 277 277 276 276 275 274 274 273 273 273 274 274 274 274 274 274 274 274 274 274 274 275 274 275 275 275 274 274 274 275 275 274
285 285 285 285 284 284 284 284 283 283 283 282 282 281 282 282 282 282 282 282 281 281 280 280 280 279 278 278 278 278 278 277 277 276 276 274 274 273 273 273 274 274 274 274 274 274 274 274 274 274 274 274 274 274 274 275 275 275 275 275 275 275 275
285 284 284 284 284 284 284 283 283 283 282 282 282 281 282 282 282 282 282 282 281 281 280 280 279 279 278 278 278 278 277 277 277 276 274 274 273 273 273 274 274 274 274 274 274 274 274 274 274 274 274 274 274 274 274 274 274 274 274 274 275 275 275
284 284 284 284 283 283 283 283 283 283 282 282 282 282 282 282 282 282 282 282 281 281 280 279 279 278 278 278 278 277 277 277 276 274 274 273 273 273 274 274 274 274 274 274 274 274 274 274 274 274 274 274 274 274 274 274 274 274 274 274 274 274 275
284 283 283 283 283 283 283 283 283 283 283 282 282 282 282 282 282 282 281 282 281 281 280 279 278 278 278 277 277 277 277 276 275 274 274 273 273 274 274 274 274 275 274 274 274 274 274 274 274 274 274 274 274 274 274 274 274 274 274 274 274 274 274
285 284 283 283 283 283 283 283 283 283 283 282 282 282 282 282 282 282 281 281 281 281 280 279 278 278 278 277 277 277 277 276 274 274 274 273 274 274 274 275 275 275 274 274 274 274 274 274 274 274 274 274 274 274 274 274 274 274 274 274 274 274 273
285 284 283 283 282 282 282 282 282 283 282 282 281 281 281 281 281 281 281 281 281 281 280 279 279 278 278 278 278 277 276 275 274 274 274 274 274 275 275 275 275 274 274 274 274 273 274 274 274 274 274 274 274 274 274 274 274 274 274 273 273 273 273
285 284 283 283 282 282 282 282 282 282 282 282 282 281 281 281 281 281 281 281 281 281 280 280 279 279 278 278 278 277 276 274 274 274 274 274 275 275 275 275 274 274 274 274 273 273 274 274 274 274 274 274 274 274 274 274 273 273 274 273 273 273 273
284 283 282 282 282 282 282 282 282 282 282 282 282 281 280 280 280 280 280 281 281 281 280 280 279 279 278 278 278 277 275 274 274 274 274 274 275 275 275 274 274 274 274 273 273 273 273 273 273 273 273 273 274 273 273 273 273 273 273 273 273 273 273
283 283 282 282 282 282 282 281 281 281 281 281 281 280 280 280 280 280 280 280 280 280 280 280 279 279 279 278 278 276 274 274 274 274 274 275 275 275 275 274 274 274 273 273 273 273 273 273 273 273 273 273 273 273 273 273 273 273 273 273 273 273 273
283 282 282 281 281 281 281 281 281 281 281 281 281 280 280 279 279 279 279 279 280 280 280 280 279 279 279 278 276 275 274 274 274 275 275 275 275 275 274 274 274 274 273 273 273 273 273 273 273 273 273 273 273 273 273 273 273 273 273 273 272 272 272
282 282 281 281 281 281 281 281 281 280 280 280 280 280 280 279 279 279 279 279 279 280 280 280 279 279 278 277 275 274 274 274 274 275 275 275 275 275 274 274 274 273 273 273 273 273 273 273 273 273 273 273 273 273 273 272 272 272 272 272 272 272 272
Wind_Speed
25 26 27 28 29 30 31 31 31 30 31 32 33 34 35 35 35 36 36 37 39 40 42 44 44 43 40 36 35 38 39 37 35 32 31 30 30 29 29 28 28 31 33 30 26 24 24 23 24 24 22 21 21 20 20 22 23 23 25 26 27 28 27
24 24 26 27 28 29 30 32 32 31 31 33 34 34 36 37 36 36 37 38 39 40 42 44 43 44 41 36 37 39 39 38 35 32 31 30 29 29 29 27 27 29 31 31 28 25 25 25 26 26 24 22 23 22 22 24 24 23 25 26 28 30 29
24 24 25 26 28 29 30 31 33 33 32 33 35 35 36 38 38 37 38 39 40 40 42 43 44 44 42 38 38 40 40 38 35 32 31 29 28 28 28 26 26 28 29 30 29 27 27 27 27 27 26 24 24 24 24 26 26 25 27 28 29 31 31
25 25 25 26 28 28 29 30 32 34 35 34 35 35 36 38 38 37 38 39 40 39 40 42 43 44 42 40 40 40 41 39 35 32 31 29 28 28 27 25 25 27 27 29 30 29 29 28 28 28 27 25 25 26 27 28 28 28 29 29 30 32 32
24 25 25 26 27 28 29 30 30 33 37 36 35 35 36 37 38 38 38 38 39 39 39 40 41 42 41 41 41 41 41 38 35 32 31 29 28 27 25 24 24 25 26 28 30 31 31 30 30 30 28 26 26 27 29 30 31 30 31 32 33 34 35
24 24 25 25 26 27 28 29 30 32 36 38 37 36 36 36 37 39 38 38 39 39 39 38 39 40 40 40 41 40 40 38 34 32 30 29 27 25 24 24 24 24 26 27 30 32 33 33 31 30 29 27 27 29 30 30 32 32 32 33 34 35 37
25 24 25 26 26 27 27 28 29 32 35 38 38 37 36 36 36 38 39 39 39 39 39 38 38 39 39 39 39 38 38 37 33 31 30 27 25 24 24 24 24 24 25 27 29 32 33 33 31 29 30 29 27 28 27 25 26 28 30 32 34 36 39
25 24 24 26 27 28 28 29 30 32 34 38 39 38 37 36 36 38 40 40 39 39 38 38 38 37 37 37 36 36 36 34 31 29 28 26 24 24 24 24 24 23 24 26 29 31 32 31 30 30 30 27 22 22 21 19 20 26 32 36 38 39 42
24 23 24 25 27 29 29 30 31 33 34 37 39 38 37 36 36 37 39 40 39 38 38 38 38 37 37 36 34 33 33 31 28 27 26 24 23 24 24 24 23 23 24 26 28 30 30 29 30 31 28 24 20 19 20 21 25 33 38 40 42 43 42
24 24 24 25 27 29 30 31 32 33 33 35 38 37 35 35 35 36 38 38 38 38 38 38 38 36 35 35 32 32 31 28 27 26 24 22 23 24 24 23 23 24 24 25 26 27 27 28 31 31 26 23 22 21 23 28 33 37 38 37 41 45 40
24 23 24 25 29 31 32 31 31 31 31 33 35 35 32 32 34 36 37 37 37 37 37 36 36 35 35 33 32 32 30 28 27 25 23 23 24 24 23 23 23 24 23 22 22 23 25 29 32 31 26 25 27 28 30 34 35 36 35 33 36 40 36
23 23 24 27 31 33 31 30 30 29 29 30 32 32 29 29 32 34 35 36 36 36 35 35 34 34 34 33 32 32 30 28 27 25 23 23 23 23 23 23 23 23 21 19 18 21 25 28 30 30 30 32 33 34 34 34 33 33 35 34 33 35 37
23 24 25 29 31 30 29 29 29 27 26 27 29 29 28 27 29 31 32 34 34 34 33 33 32 32 33 32 32 31 29 27 26 24 23 22 22 22 22 21 21 20 18 16 18 23 27 29 31 33 35 35 32 31 31 31 32 33 33 34 36 40 44
25 25 26 27 27 27 28 28 26 24 23 24 26 27 27 25 25 27 29 31 31 31 30 30 30 30 30 31 31 31 29 27 25 23 23 22 22 22 21 20 19 18 18 19 23 28 32 34 35 35 34 31 27 26 27 28 31 33 36 40 44 47 48
27 25 25 25 26 28 28 26 22 20 20 22 24 25 27 26 23 24 26 28 28 28 27 27 27 27 27 28 30 29 27 25 24 23 23 23 23 23 22 21 20 20 21 24 27 32 35 35 31 28 27 25 23 23 25 28 33 38 43 47 49 48 47
26 26 25 26 27 28 27 24 19 17 17 20 21 23 26 28 26 24 24 24 25 25 25 25 25 25 25 26 27 26 24 23 22 22 23 23 23 23 22 20 19 19 21 23 25 26 27 26 23 22 22 22 23 27 31 35 39 40 42 44 46 45 43
26 27 27 28 28 27 25 22 16 14 15 17 19 21 25 28 28 26 24 22 21 20 20 20 21 23 24 24 24 24 23 22 22 22 23 23 22 22 21 18 17 17 19 20 21 20 20 21 21 22 24 24 26 28 31 34 36 35 35 38 40 41 39
27 28 27 28 27 24 23 20 14 13 14 16 17 20 25 27 27 27 26 24 22 20 18 16 17 20 22 22 23 23 22 22 22 22 23 22 21 20 18 16 15 15 17 17 17 17 17 18 19 20 20 20 21 22 24 27 29 29 30 32 35 36 37
26 27 26 26 24 22 21 18 13 11 12 15 17 20 24 27 27 27 28 26 24 22 20 16 15 17 20 21 23 22 21 21 22 21 21 20 19 18 16 13 13 14 15 14 13 13 13 13 13 14 14 15 16 17 19 22 23 24 26 29 31 31 33
25 25 25 23 22 20 20 16 13 11 11 14 16 19 24 27 27 28 29 27 25 23 22 20 16 17 20 23 22 21 21 21 20 19 18 18 16 14 12 11 11 12 11 10 10 9 9 8 9 10 11 12 14 15 17 19 21 22 24 27 29 28 29
24 24 24 23 22 20 17 14 12 10 11 14 17 20 24 27 27 28 29 27 24 23 23 21 18 18 22 23 22 21 20 19 19 18 17 15 12 11 9 9 10 10 8 7 6 5 5 6 7 9 10 11 13 14 16 19 20 22 24 25 26 27 29
23 22 23 22 20 17 13 10 10 10 11 14 17 20 24 25 25 27 27 26 24 23 22 20 18 18 20 22 21 21 19 18 18 17 16 12 10 10 9 8 7 7 6 5 3 2 4 5 7 8 9 10 12 14 16 19 20 22 24 24 24 25 28
21 19 20 19 15 12 9 8 10 10 11 15 18 20 22 24 24 25 25 24 22 22 21 19 17 16 18 20 21 19 18 18 19 18 16 13 11 11 9 6 6 5 3 2 2 2 4 5 6 8 9 11 13 15 17 19 21 22 23 24 23 23 25
18 16 16 14 11 8 7 7 9 10 12 16 19 20 21 23 24 24 23 20 18 19 19 17 15 16 17 19 18 16 16 19 20 19 17 14 12 10 7 6 5 4 3 1 1 2 3 5 7 9 11 12 14 16 18 19 20 22 23 23 23 22 22
17 14 13 11 8 6 6 6 8 10 12 15 19 21 22 22 23 23 20 17 15 15 15 14 14 15 16 18 18 18 19 22 22 20 17 14 11 8 7 6 5 5 4 2 0 1 3 6 8 10 12 14 15 16 17 18 19 21 22 23 22 20 19
18 14 12 10 7 4 5 7 8 10 13 15 19 23 22 21 22 20 16 14 13 12 12 13 14 15 18 20 22 23 25 25 22 18 14 11 10 9 8 7 6 5 5 3 2 2 4 6 9 11 13 14 15 16 17 18 19 20 21 22 23 22 19
19 15 11 9 7 4 5 7 8 10 13 15 19 23 24 22 21 20 16 15 16 14 14 14 16 18 22 25 26 27 26 22 16 12 11 10 10 10 9 9 8 6 5 3 2 3 5 7 9 10 12 13 14 16 17 19 20 21 23 24 25 25 23
19 15 11 8 7 5 5 7 8 10 13 15 17 22 26 26 24 23 20 19 19 19 17 18 21 24 26 28 28 26 22 17 13 12 12 11 11 11 11 10 9 7 6 4 4 5 6 8 9 10 11 13 15 16 17 19 20 22 24 25 26 27 27
18 15 11 7 6 7 6 6 7 8 11 13 14 18 23 27 28 26 23 21 22 22 23 24 25 26 27 27 26 22 18 14 13 13 13 12 13 13 12 11 9 8 6 5 5 6 6 7 8 10 12 13 15 17 18 20 21 22 24 25 26 28 29
16 15 13 9 6 6 5 5 7 10 12 13 14 16 20 26 28 26 24 23 23 23 25 26 26 26 25 25 22 18 15 15 15 14 14 14 15 14 13 11 10 8 6 5 5 5 6 7 8 10 12 14 15 17 19 20 21 22 23 24 26 27 28
14 13 13 12 8 6 4 5 10 13 13 14 16 16 19 25 28 26 24 24 25 24 25 26 26 25 24 22 19 16 15 15 15 15 15 16 16 14 13 12 10 8 7 5 5 5 6 7 9 11 13 15 16 17 19 20 21 23 24 24 25 27 28
14 11 11 12 9 5 3 4 9 13 13 15 17 17 18 23 27 27 24 24 24 24 24 25 24 23 22 21 18 16 16 16 15 16 17 17 16 14 13 12 10 8 7 5 5 5 5 7 9 11 13 15 17 18 19 21 22 23 24 24 25 26 27
16 12 8 9 9 5 3 3 8 12 13 15 17 18 18 21 24 27 26 25 25 25 24 23 22 21 20 19 17 16 17 17 17 18 19 18 16 15 13 12 10 8 7 6 5 4 5 7 9 11 13 15 17 19 20 22 23 24 25 25 26 27 27
18 13 6 6 8 7 4 2 5 11 13 15 17 18 18 19 22 23 24 23 24 25 24 22 22 20 19 18 17 17 17 18 19 20 20 18 17 16 14 12 10 9 7 6 4 3 4 6 8 11 13 15 17 19 20 22 24 25 26 27 27 28 28
18 12 4 3 8 9 6 3 4 9 13 15 18 20 20 22 24 25 23 22 23 25 23 20 19 19 18 17 17 17 18 19 21 21 20 18 17 15 14 12 10 9 7 5 3 2 3 5 8 10 12 14 16 18 19 22 24 25 26 27 27 28 28
19 13 4 5 9 10 7 4 5 9 13 15 18 21 22 25 28 28 26 24 24 25 22 18 17 17 18 17 17 18 19 20 21 21 19 18 17 15 13 12 10 9 7 5 3 1 2 5 7 9 11 13 16 17 19 21 23 24 25 26 26 27 28
Wind_Direction
290 287 283 282 280 278 273 270 270 265 257 252 249 248 247 246 245 246 246 245 243 240 238 238 239 241 242 244 243 239 237 239 241 245 248 250 252 253 253 253 252 254 261 266 270 274 276 280 283 284 287 288 289 292 291 292 294 297 297 297 299 298 295
294 289 284 281 279 278 275 269 267 266 260 254 249 248 248 246 244 243 243 243 240 238 237 237 238 239 240 242 242 239 236 238 240 243 247 249 251 253 253 253 254 256 260 265 270 275 278 281 284 286 290 293 294 297 296 294 296 298 299 300 301 301 299
296 292 287 283 279 278 278 272 266 263 262 256 250 248 248 247 245 243 241 240 239 236 236 236 237 237 238 240 241 239 236 236 238 241 245 249 251 253 254 254 255 257 260 265 271 276 278 280 283 286 292 296 296 299 298 297 299 301 302 303 304 303 302
295 293 289 285 282 281 281 279 271 262 259 258 253 248 248 248 246 243 241 240 239 237 236 236 237 237 238 240 242 239 235 234 236 239 243 246 248 251 252 253 255 257 262 266 270 274 277 279 283 287 293 297 299 301 301 300 303 304 305 305 305 304 304
293 294 291 288 286 284 282 282 279 268 260 257 255 250 247 247 246 244 242 240 239 238 237 237 238 238 239 240 242 239 234 233 235 238 241 244 245 248 250 252 254 257 261 265 267 272 277 281 285 289 294 298 300 301 301 301 303 306 307 307 307 307 308
292 293 291 288 287 286 283 282 282 275 264 257 254 251 247 246 245 244 242 240 238 238 238 238 238 239 240 242 244 240 234 232 234 237 239 242 244 246 247 248 251 255 259 263 267 272 276 281 286 292 296 299 300 299 299 300 303 305 307 308 309 308 308
292 293 291 289 287 286 286 284 282 278 269 257 252 250 246 243 243 243 241 240 238 237 238 239 239 239 240 243 245 240 233 231 234 236 239 242 243 243 244 245 248 252 257 262 266 270 275 282 288 292 295 297 297 296 296 298 300 301 302 304 303 301 302
294 293 290 289 289 289 289 288 284 279 271 258 249 247 245 242 241 241 239 238 237 237 238 239 240 240 240 244 246 239 232 232 235 236 238 239 239 240 241 242 245 249 254 259 264 269 275 282 287 290 293 294 291 290 292 293 293 293 297 299 299 299 301
295 293 290 289 292 294 292 290 286 281 273 259 248 244 242 240 239 239 238 238 238 238 238 239 241 240 240 244 243 234 230 232 235 236 237 237 237 239 240 241 243 246 250 256 261 268 274 280 284 287 289 286 283 285 288 290 290 292 296 299 299 300 303
295 292 291 292 296 299 296 291 287 283 275 261 248 243 241 239 238 237 237 238 239 238 238 238 240 241 242 244 239 228 227 231 233 234 235 235 237 239 239 241 242 244 249 255 260 267 274 278 281 284 284 282 284 285 286 290 293 295 298 300 301 302 305
296 295 296 299 302 302 298 292 288 284 274 260 248 241 239 238 236 236 236 237 238 238 238 238 240 241 242 240 231 223 224 228 230 230 230 232 236 239 239 241 243 246 250 254 259 268 274 277 280 282 279 278 283 286 289 293 296 298 299 298 298 299 303
299 300 302 303 302 301 299 295 292 284 270 256 245 239 238 235 234 235 236 236 237 238 239 239 240 241 241 236 225 220 222 224 226 227 229 232 235 238 239 241 244 247 249 255 266 272 273 273 275 275 274 278 284 289 293 296 297 299 300 297 291 290 296
302 302 302 300 299 301 301 298 292 282 266 251 240 234 235 235 232 234 237 236 236 238 239 240 240 240 240 233 223 219 221 221 223 225 227 232 234 236 239 241 245 251 256 266 271 267 264 265 266 270 276 282 288 293 296 298 299 299 295 289 286 288 294
303 301 298 297 299 303 304 300 292 279 263 247 233 225 229 234 233 232 234 236 236 237 238 239 240 240 239 232 222 218 218 217 219 223 225 229 231 233 235 236 239 245 248 250 251 253 259 264 268 273 280 286 293 297 298 297 296 292 287 285 287 290 294
303 301 299 301 304 305 305 303 293 277 259 243 230 219 221 229 231 229 231 233 234 235 236 237 239 240 239 232 222 218 217 216 218 222 223 225 228 230 234 236 240 243 245 245 247 253 261 267 272 278 284 290 295 292 289 287 284 283 284 286 289 291 294
303 302 304 307 306 305 307 305 292 273 257 242 228 216 215 222 226 227 228 229 230 232 233 235 237 238 237 232 221 215 214 215 217 220 221 223 227 230 234 240 245 248 250 252 254 259 265 272 277 282 283 284 281 277 277 279 281 283 285 287 290 294 297
303 305 307 307 305 304 307 305 288 266 256 243 225 211 210 217 222 225 228 229 229 229 230 233 235 235 235 229 216 208 209 213 215 216 218 222 226 230 235 241 245 246 247 251 256 260 265 269 271 273 275 276 276 277 280 282 285 290 292 292 295 298 302
305 306 306 305 304 303 304 299 279 254 250 240 220 207 208 214 218 222 226 228 229 230 231 232 232 232 230 219 204 201 207 212 214 214 217 221 225 230 238 241 240 243 248 254 261 265 267 269 271 274 279 284 287 289 289 289 294 300 300 298 300 302 306
306 305 305 305 303 301 300 292 267 242 239 231 215 205 208 213 215 218 224 226 226 229 230 230 230 228 218 204 195 200 205 208 212 214 216 221 227 233 239 239 240 247 255 263 269 273 274 276 278 283 290 297 302 303 303 305 308 310 307 306 307 307 308
306 304 304 303 300 297 296 284 256 232 226 222 211 204 208 212 213 216 222 222 222 225 225 224 224 217 204 195 193 198 199 200 207 215 217 223 231 236 238 243 252 260 266 272 273 272 274 277 286 297 305 313 317 317 321 324 323 321 319 315 314 313 309
307 303 298 295 294 292 288 273 246 227 220 216 207 203 209 214 214 216 219 219 218 222 223 220 217 207 197 192 190 193 193 192 199 213 225 229 232 239 245 251 261 266 266 265 265 273 283 290 308 318 317 321 326 327 332 337 335 332 330 324 320 318 313
308 301 293 291 290 286 278 258 234 219 212 209 201 199 209 217 216 216 219 217 216 219 220 218 215 205 195 189 187 189 191 186 190 209 229 234 232 245 255 257 258 260 258 254 257 301 315 306 317 328 327 330 336 338 342 345 344 341 338 333 328 324 318
310 300 293 292 290 283 270 245 222 209 202 200 195 193 205 218 220 218 219 216 214 217 217 213 210 202 193 189 188 188 186 181 187 203 220 227 233 246 255 256 248 241 239 246 255 296 329 328 328 336 341 344 346 348 349 350 349 347 346 342 336 331 324
312 302 295 294 294 286 266 238 218 205 198 197 194 191 200 214 220 219 217 213 212 216 216 209 202 196 192 188 185 180 178 182 190 201 212 223 236 247 250 247 235 210 191 211 257 283 340 348 341 345 351 352 353 353 353 354 353 351 350 349 345 340 332
319 310 299 296 299 290 261 237 221 208 199 195 194 192 194 206 216 217 211 207 208 210 209 202 196 191 185 177 172 171 177 186 195 206 219 230 238 241 235 225 205 184 182 179 115 8 358 357 354 355 356 355 355 355 354 356 358 355 355 354 352 351 346
325 319 305 296 296 285 249 235 222 209 202 195 190 189 188 196 210 213 204 199 200 195 189 189 190 183 172 168 172 179 186 194 203 214 223 226 223 220 213 196 178 175 183 173 99 40 18 9 4 1 359 356 355 354 353 356 359 359 359 357 357 360 2
325 322 312 298 287 273 243 232 218 206 203 195 188 185 181 183 197 204 195 188 190 184 175 175 178 175 170 172 180 188 196 204 211 213 211 209 207 202 189 177 173 169 162 148 95 43 30 20 13 7 3 359 358 356 356 357 359 0 1 360 359 2 7
325 323 317 295 272 261 243 230 220 208 203 197 189 187 182 177 184 195 192 183 183 182 174 170 174 176 175 179 186 193 200 208 210 203 201 200 195 185 175 170 171 165 146 121 82 55 40 27 19 14 9 7 4 3 2 2 2 2 2 1 1 2 4
318 315 312 297 268 253 240 228 217 204 198 195 189 190 188 181 182 191 192 184 181 182 179 176 179 180 179 183 190 196 200 204 202 199 198 192 181 175 171 167 165 158 140 110 81 63 47 35 24 19 17 14 11 9 8 9 8 6 3 2 2 4 4
312 304 299 299 289 265 243 213 191 187 191 190 184 187 190 186 184 188 190 186 184 186 184 181 181 182 183 188 194 198 199 200 199 196 190 182 174 170 169 168 162 147 126 106 89 70 52 39 28 22 20 17 14 13 13 12 13 11 7 4 3 3 5
321 305 289 287 293 289 259 209 190 188 190 188 182 181 185 186 186 188 190 189 188 188 187 187 185 184 187 192 195 198 199 198 195 191 183 176 171 168 168 167 157 140 129 116 97 76 53 38 29 25 21 17 14 14 14 14 14 13 11 9 6 4 5
334 315 285 270 270 282 277 218 199 194 190 185 181 178 178 184 189 192 193 192 192 190 191 191 190 188 189 192 195 198 197 195 192 186 178 172 170 171 169 162 150 141 138 125 102 79 54 37 29 25 22 18 15 13 13 14 15 14 12 11 9 7 6
342 331 297 258 244 240 244 220 201 195 190 183 177 174 173 178 188 195 196 193 193 195 193 191 192 192 191 192 196 197 195 192 188 181 174 171 172 172 169 162 153 150 145 131 112 83 50 36 29 24 21 17 13 12 12 12 13 12 12 11 10 10 8
348 340 311 246 217 203 200 195 188 189 187 176 169 169 168 167 176 190 198 196 195 198 195 190 190 192 191 193 196 195 194 191 184 177 173 174 175 173 168 162 158 158 152 137 120 81 46 32 24 22 20 14 11 11 11 11 11 11 10 10 9 9 9
354 353 334 204 179 178 178 152 162 181 180 172 166 165 163 162 168 181 192 194 196 199 197 191 188 187 188 192 194 193 192 189 182 176 175 176 177 174 168 164 165 165 157 144 129 81 36 23 16 16 15 11 10 10 9 10 11 10 9 9 8 8 8
3 10 27 148 155 161 161 133 141 168 172 170 167 164 164 168 175 183 188 190 193 196 194 188 184 181 184 189 190 190 190 185 178 176 177 178 178 175 169 169 172 168 161 154 151 104 18 11 8 9 11 9 7 8 9 11 11 9 8 8 7 6 7